Date,TemperatureHighF,TemperatureAvgF,TemperatureLowF,DewpointHighF,DewpointAvgF,DewpointLowF,HumidityHigh,HumidityAvg,HumidityLow,PressureMaxIn,PressureMinIn,WindSpeedMaxMPH,WindSpeedAvgMPH,GustSpeedMaxMPH,PrecipitationSumIn
2013-1-1,31,23,19,23,15,8,78,70,57,30.07,29.89,15,3,15,0.00
2013-1-2,30,24,20,23,18,15,87,79,72,30.21,29.99,13,3,13,0.00
2013-1-3,30,23,16,26,20,14,98,87,78,30.20,29.95,18,3,18,0.00
2013-1-4,32,30,29,25,23,22,82,77,73,30.02,29.87,21,7,21,0.00
2013-1-5,38,33,29,31,28,24,92,81,65,30.27,30.02,19,3,19,0.02
2013-1-6,38,34,26,34,31,22,94,88,84,30.15,29.85,19,4,19,0.17
2013-1-7,34,28,21,29,23,17,87,83,76,30.41,30.13,21,5,21,0.00
2013-1-8,39,34,31,33,29,26,94,82,70,30.30,30.11,16,3,18,0.01
2013-1-9,46,39,29,37,32,27,95,77,60,30.34,29.92,33,5,33,0.01
2013-1-10,45,39,36,33,30,27,84,71,58,30.59,30.34,18,2,18,0.00
2013-1-11,46,41,38,46,38,33,98,91,82,30.39,29.86,9,1,9,0.15
2013-1-12,58,49,43,52,47,42,99,93,79,29.96,29.87,11,2,11,0.00
2013-1-13,58,49,43,54,48,42,100,94,83,29.93,29.71,11,1,11,1.12
2013-1-14,43,33,28,42,26,19,97,76,65,30.39,29.79,17,3,17,0.15
2013-1-15,35,29,25,22,19,17,82,67,52,30.41,30.17,12,1,12,0.00
2013-1-16,40,33,27,28,24,19,81,70,57,30.17,29.75,18,3,18,0.00
2013-1-17,35,21,13,28,13,6,86,70,57,30.23,29.82,20,3,20,0.00
2013-1-18,33,21,12,25,14,7,92,73,57,30.44,29.99,27,4,27,0.00
2013-1-19,46,41,33,38,32,25,79,70,64,29.99,29.48,28,7,28,0.02
2013-1-20,46,27,18,36,20,10,91,73,57,30.08,29.39,32,6,32,0.04
2013-1-21,24,18,12,13,8,2,80,66,53,30.07,29.86,16,3,16,0.00
2013-1-22,12,8,5,6,2,-3,86,74,65,30.22,29.90,18,3,18,0.00
2013-1-23,15,7,-2,8,0,-10,82,71,63,30.27,30.12,12,1,12,0.00
2013-1-24,13,9,4,6,1,-3,82,70,58,30.57,30.12,20,3,20,0.00
2013-1-25,18,13,7,15,9,1,89,83,74,30.54,30.11,5,0,5,0.00
2013-1-26,27,20,13,19,14,9,87,79,65,30.43,30.12,8,1,8,0.00
2013-1-27,30,22,12,24,17,9,87,79,67,30.58,30.33,10,2,10,0.00
2013-1-28,38,34,29,38,32,23,99,94,75,30.34,29.83,10,1,10,0.28
2013-1-29,40,36,33,39,35,32,99,98,95,30.04,29.65,17,0,17,0.65
2013-1-30,57,51,39,54,49,39,100,93,82,29.65,28.97,23,4,23,0.17
2013-1-31,49,28,21,48,23,14,96,82,66,29.70,28.98,22,6,22,0.08
2013-2-1,22,18,14,15,10,6,82,71,54,30.18,29.70,20,4,20,0.00
2013-2-2,23,18,14,16,11,6,84,74,68,30.17,29.97,15,4,15,0.00
2013-2-3,25,18,11,16,11,7,87,75,52,30.00,29.81,12,1,12,0.00
2013-2-4,22,18,12,16,11,4,86,75,66,29.98,29.86,15,2,15,0.00
2013-2-5,25,19,10,20,12,4,86,75,64,29.98,29.85,14,2,14,0.00
2013-2-6,28,23,18,24,13,7,91,68,43,30.39,29.86,17,3,17,0.03
2013-2-7,28,21,18,22,17,10,93,85,71,30.40,30.13,13,1,13,0.00
2013-2-8,21,18,15,19,16,13,95,93,90,30.20,29.90,17,4,17,0.00
2013-2-9,27,17,9,24,15,7,93,91,88,30.43,30.20,11,2,11,0.12
2013-2-10,35,23,10,32,20,8,93,87,74,30.40,29.93,10,1,10,0.05
2013-2-11,46,37,33,42,34,29,98,87,67,29.94,29.52,24,5,24,0.37
2013-2-12,36,34,31,31,27,24,87,76,62,29.95,29.66,21,4,21,0.00
2013-2-13,37,31,27,26,23,21,83,72,59,29.89,29.75,10,2,10,0.00
2013-2-14,36,32,26,35,29,21,96,88,79,29.87,29.71,15,4,15,0.20
2013-2-15,36,30,21,34,23,15,94,75,55,30.08,29.69,18,5,18,0.00
2013-2-16,28,22,18,22,18,12,96,86,78,30.08,29.97,10,1,10,0.00
2013-2-17,18,11,4,12,4,-1,82,73,61,30.25,29.98,20,4,20,0.00
2013-2-18,33,20,6,28,14,2,86,77,63,30.28,29.86,15,2,15,0.03
2013-2-19,40,34,24,38,30,19,96,85,75,29.87,29.51,28,6,28,0.55
2013-2-20,25,22,19,20,14,12,90,74,63,30.09,29.73,19,6,19,0.00
2013-2-21,28,17,8,18,10,2,81,74,65,30.44,30.08,18,4,18,0.01
2013-2-22,34,27,16,33,24,12,97,89,81,30.41,29.96,16,1,16,0.00
2013-2-23,38,35,31,35,31,26,97,85,67,29.96,29.84,15,3,15,0.05
2013-2-24,37,32,28,31,28,26,92,84,78,30.10,29.84,12,2,12,0.07
2013-2-25,37,35,32,30,28,26,84,77,66,30.23,30.09,10,1,10,0.00
2013-2-26,38,35,31,34,31,27,97,84,75,30.22,29.78,15,2,15,0.10
2013-2-27,35,34,32,34,33,32,98,97,97,29.79,29.57,10,1,10,0.91
2013-2-28,38,34,31,35,32,27,98,92,82,29.80,29.52,16,2,16,0.45
2013-3-1,32,27,21,27,21,15,86,78,68,30.01,29.79,19,6,19,0.01
2013-3-2,30,22,17,21,16,11,86,76,67,30.01,29.93,15,4,15,0.00
2013-3-3,26,22,18,18,15,12,84,77,70,29.95,29.89,16,5,16,0.00
2013-3-4,33,24,19,21,17,14,84,75,60,30.09,29.94,14,4,14,0.00
2013-3-5,34,27,20,27,21,16,86,78,63,30.12,30.00,8,1,8,0.00
2013-3-6,41,35,28,33,29,24,87,79,66,30.18,29.99,8,1,8,0.01
2013-3-7,43,36,34,34,31,28,96,82,58,30.31,30.17,7,1,7,0.04
2013-3-8,42,36,33,33,31,29,94,83,60,30.42,30.31,11,2,11,0.01
2013-3-9,46,37,30,34,30,28,93,78,58,30.42,30.18,10,1,10,0.01
2013-3-10,59,46,36,40,35,31,88,68,47,30.19,29.93,14,2,14,0.00
2013-3-11,50,45,42,44,39,35,93,80,68,29.94,29.59,14,1,14,0.20
2013-3-12,45,39,34,43,34,29,94,84,75,29.87,29.61,16,4,16,0.04
2013-3-13,37,31,21,32,24,11,93,76,50,30.01,29.82,24,4,24,0.02
2013-3-14,36,25,18,15,11,4,80,58,30,30.10,29.99,21,5,22,0.00
2013-3-15,43,33,26,30,23,15,81,66,47,30.05,29.72,23,4,23,0.00
2013-3-16,30,26,22,20,16,11,83,68,54,30.00,29.88,8,2,8,0.01
2013-3-17,32,25,21,17,12,8,78,60,43,30.36,30.00,15,2,15,0.00
2013-3-18,33,27,19,31,20,9,97,73,58,30.35,29.66,18,2,18,0.00
2013-3-19,36,31,25,35,28,19,98,87,74,29.82,29.58,18,4,18,0.13
2013-3-20,35,27,24,25,20,16,88,75,51,29.84,29.78,15,4,15,0.03
2013-3-21,32,26,20,27,20,15,91,78,69,29.82,29.70,14,3,14,0.02
2013-3-22,41,31,26,27,24,20,86,75,58,29.94,29.74,19,4,19,0.06
2013-3-23,43,34,29,27,25,23,88,71,48,30.04,29.92,17,4,17,0.02
2013-3-24,41,33,26,27,24,21,87,71,52,30.04,29.76,11,1,11,0.01
2013-3-25,45,38,32,31,27,24,76,66,55,29.76,29.65,9,1,9,0.00
2013-3-26,52,42,36,32,29,25,72,61,41,29.95,29.75,13,3,13,0.00
2013-3-27,45,38,34,35,30,26,89,74,57,30.08,29.92,16,4,16,0.01
2013-3-28,45,40,34,34,31,29,87,73,54,30.21,30.06,12,3,12,0.00
2013-3-29,53,43,37,32,29,21,78,59,40,30.21,30.12,13,2,13,0.00
2013-3-30,55,43,31,32,28,23,82,57,37,30.20,29.99,15,2,15,0.00
2013-3-31,54,46,39,42,34,28,90,64,48,30.00,29.56,14,3,14,0.02
2013-4-1,44,34,26,42,23,15,91,67,47,29.97,29.54,22,6,22,0.08
2013-4-2,36,28,23,24,18,14,77,65,45,30.13,29.96,21,5,21,0.00
2013-4-3,39,30,24,21,17,12,75,59,37,30.40,30.13,20,4,20,0.00
2013-4-4,50,38,28,26,21,14,73,53,29,30.36,29.89,21,4,21,0.00
2013-4-5,43,37,30,32,24,16,75,60,33,30.19,29.89,22,5,22,0.00
2013-4-6,43,34,25,29,24,19,80,67,47,30.32,29.97,14,2,14,0.00
2013-4-7,64,47,37,48,36,29,78,66,56,30.03,29.62,22,4,22,0.02
2013-4-8,48,43,40,40,36,32,95,77,63,30.10,29.77,14,2,14,0.29
2013-4-9,56,48,41,49,44,40,97,88,66,30.10,29.78,16,2,16,0.72
2013-4-10,47,43,40,46,41,37,97,93,88,30.11,29.88,11,2,11,0.50
2013-4-11,40,35,30,37,29,23,94,80,63,30.16,29.90,10,1,10,0.10
2013-4-12,43,37,32,41,35,28,98,93,78,29.95,29.55,15,3,15,0.70
2013-4-13,45,41,38,39,37,32,93,86,70,29.90,29.72,18,4,18,0.08
2013-4-14,48,40,34,34,30,28,83,69,51,30.17,29.90,15,2,15,0.00
2013-4-15,55,46,38,46,38,30,79,72,61,30.14,29.98,12,1,12,0.00
2013-4-16,61,55,45,54,46,32,91,73,49,30.23,29.90,18,5,18,0.02
2013-4-17,55,46,37,38,34,31,79,64,47,30.37,30.23,13,2,13,0.02
2013-4-18,70,54,41,61,47,35,91,76,65,30.25,29.63,12,-2,12,0.16
2013-4-19,64,55,43,60,49,31,94,79,60,29.67,29.29,26,7,26,0.16
2013-4-20,43,36,31,35,26,20,92,68,52,30.42,29.67,23,6,23,0.06
2013-4-21,46,36,29,30,25,20,78,64,46,30.69,30.42,12,1,12,0.00
2013-4-22,56,44,35,37,32,26,83,63,46,30.60,30.30,10,1,10,0.00
2013-4-23,53,46,37,41,36,32,84,67,55,30.30,29.87,8,1,8,0.00
2013-4-24,56,47,37,51,41,32,96,82,65,30.01,29.62,19,4,19,0.67
2013-4-25,53,41,34,39,35,30,91,79,48,30.30,30.01,23,4,23,0.06
2013-4-26,57,46,34,38,33,25,91,64,40,30.47,30.30,16,3,16,0.00
2013-4-27,67,51,41,43,36,29,76,56,41,30.41,30.20,13,2,13,0.00
2013-4-28,68,55,45,50,43,35,94,67,48,30.21,29.97,22,2,22,0.20
2013-4-29,55,51,47,53,49,46,98,94,84,30.01,29.93,5,0,5,0.30
2013-4-30,72,58,51,60,54,50,97,85,65,30.16,30.01,13,-2,13,0.01
2013-5-1,74,64,54,58,51,39,85,65,40,30.31,30.16,8,-2,8,0.00
2013-5-2,76,64,51,47,42,39,73,48,30,30.37,30.23,13,1,13,0.00
2013-5-3,74,64,51,49,45,41,71,51,38,30.27,30.18,11,1,11,0.00
2013-5-4,73,62,51,47,43,34,78,52,26,30.25,30.14,11,1,11,0.02
2013-5-5,79,66,51,49,45,41,72,49,33,30.18,30.06,11,-3,11,0.00
2013-5-6,76,63,49,46,39,31,79,45,22,30.12,30.01,12,1,12,0.00
2013-5-7,80,64,48,48,41,35,73,45,23,30.10,29.99,9,0,9,0.00
2013-5-8,72,63,57,59,52,42,88,69,51,30.02,29.93,10,0,10,0.00
2013-5-9,79,66,61,62,58,49,92,75,40,29.93,29.86,12,1,12,0.03
2013-5-10,61,55,52,56,52,46,98,89,65,29.91,29.66,11,0,11,0.79
2013-5-11,62,52,45,56,46,42,98,82,65,29.75,29.66,19,4,19,0.01
2013-5-12,50,42,37,47,34,30,91,74,52,29.91,29.66,24,6,24,0.10
2013-5-13,53,43,36,34,29,22,83,60,36,30.12,29.91,20,3,20,0.00
2013-5-14,55,46,38,38,34,28,81,63,46,30.13,29.91,18,2,18,0.00
2013-5-15,78,60,44,58,46,38,92,65,36,29.91,29.49,29,3,29,0.06
2013-5-16,75,63,52,47,44,39,69,51,28,30.02,29.69,23,4,23,0.00
2013-5-17,68,56,45,47,42,37,83,60,39,30.21,30.01,9,2,12,0.00
2013-5-18,70,59,46,45,42,38,86,57,40,30.25,30.12,10,0,10,0.00
2013-5-19,75,63,54,61,54,39,87,71,45,30.12,29.95,10,0,10,0.00
2013-5-20,84,69,59,68,62,56,94,79,59,30.01,29.83,13,1,13,0.22
2013-5-21,76,66,61,68,63,59,97,89,75,29.86,29.72,17,1,17,0.06
2013-5-22,82,66,57,68,62,56,97,87,59,29.77,29.59,13,1,13,0.26
2013-5-23,75,60,40,62,54,38,93,82,60,29.97,29.63,22,5,22,0.07
2013-5-24,55,45,39,39,36,33,92,71,53,30.25,29.97,21,6,21,0.02
2013-5-25,60,50,40,41,37,34,85,62,47,30.28,30.20,21,5,21,0.00
2013-5-26,65,54,43,39,37,-100,77,54,34,30.25,30.18,18,3,18,0.00
2013-5-27,72,59,43,45,40,36,80,52,27,30.26,30.10,12,2,6,0.00
2013-5-28,57,54,50,56,49,42,99,85,62,30.12,29.89,5,0,5,0.62
2013-5-29,85,70,56,72,65,56,100,87,60,29.96,29.80,17,2,17,2.32
2013-5-30,90,76,65,72,68,64,97,76,53,30.06,29.96,20,3,20,0.00
2013-5-31,88,76,65,71,67,62,91,74,52,30.00,29.87,24,3,24,0.07
2013-6-1,82,72,65,72,67,63,94,84,67,29.88,29.70,24,4,24,0.19
2013-6-2,76,66,51,67,61,44,98,86,71,29.90,29.61,24,5,24,0.51
2013-6-3,67,56,47,45,43,40,85,64,41,30.03,29.89,15,2,15,0.00
2013-6-4,72,59,47,45,40,34,77,52,30,30.17,30.02,16,2,16,0.00
2013-6-5,66,60,55,46,43,36,68,53,44,30.23,30.07,10,0,10,0.00
2013-6-6,60,56,53,54,48,42,98,78,56,30.09,29.85,13,1,13,0.28
2013-6-7,61,58,54,57,56,53,99,92,84,29.87,29.82,11,1,11,0.01
2013-6-8,71,62,58,59,56,53,92,81,64,30.04,29.83,12,2,12,0.00
2013-6-9,77,65,52,64,53,50,94,67,46,30.16,30.04,12,1,12,0.00
2013-6-10,63,60,59,60,57,51,99,88,65,30.10,29.68,9,1,9,0.75
2013-6-11,76,67,60,63,61,58,100,83,57,29.84,29.64,15,3,15,0.37
2013-6-12,78,66,57,60,56,51,96,72,49,29.91,29.73,10,2,10,0.00
2013-6-13,74,63,59,63,57,-100,96,84,66,29.79,29.57,12,1,12,0.40
2013-6-14,77,65,58,62,57,46,99,76,53,29.98,29.78,15,4,15,0.00
2013-6-15,79,67,52,60,49,45,78,55,37,30.04,29.90,15,3,15,0.00
2013-6-16,82,70,62,67,62,51,98,76,56,29.91,29.67,14,3,14,0.49
2013-6-17,79,70,62,64,60,55,90,70,54,29.92,29.77,12,2,12,0.00
2013-6-18,74,64,54,56,53,47,95,69,42,30.04,29.89,13,2,13,0.07
2013-6-19,71,62,54,49,46,42,76,56,44,30.18,30.04,12,2,12,0.00
2013-6-20,78,64,50,53,50,46,93,64,39,30.24,30.17,12,2,12,0.00
2013-6-21,84,69,55,58,54,51,89,61,36,30.24,30.13,11,2,11,0.00
2013-6-22,80,71,62,74,65,54,97,81,61,30.14,29.96,11,1,11,0.31
2013-6-23,95,80,66,75,70,64,97,74,47,30.02,29.90,17,3,17,0.00
2013-6-24,94,84,72,76,71,68,89,67,46,29.97,29.84,15,3,15,0.00
2013-6-25,86,77,72,74,70,67,93,79,65,29.88,29.73,14,2,14,0.46
2013-6-26,90,78,70,72,69,67,93,75,54,29.78,29.72,16,3,16,0.00
2013-6-27,77,72,67,70,67,65,94,85,75,29.76,29.63,9,0,9,0.00
2013-6-28,70,66,64,67,64,62,97,94,88,29.63,29.49,5,0,5,0.33
2013-6-29,80,68,63,66,62,59,97,83,63,29.69,29.49,14,2,14,0.00
2013-6-30,81,70,60,65,61,55,94,75,56,29.93,29.68,13,1,13,0.00
2013-7-1,76,69,63,58,54,50,69,60,51,30.07,29.92,14,2,14,0.00
2013-7-2,76,68,62,64,59,52,88,72,61,30.09,30.02,9,1,9,0.00
2013-7-3,87,72,63,73,66,61,96,84,63,30.14,30.05,10,1,10,0.00
2013-7-4,87,76,69,74,70,68,97,85,64,30.13,30.05,16,3,16,0.12
2013-7-5,80,74,72,73,71,69,95,89,80,30.09,30.01,10,1,10,0.24
2013-7-6,88,77,67,73,70,65,97,79,51,30.10,29.97,12,2,13,0.00
2013-7-7,82,74,71,74,71,70,99,91,74,30.01,29.89,17,2,17,1.57
2013-7-8,89,74,69,75,70,67,99,88,60,30.02,29.93,17,2,17,2.45
2013-7-9,79,73,68,73,71,68,100,94,81,30.00,29.85,9,1,9,0.02
2013-7-10,92,78,67,75,70,57,97,79,51,29.85,29.65,20,4,20,0.04
2013-7-11,80,70,61,65,60,55,83,71,56,30.01,29.81,15,4,15,0.00
2013-7-12,80,70,61,66,61,57,88,73,59,30.16,30.01,11,1,11,0.00
2013-7-13,85,73,61,68,63,58,91,72,53,30.23,30.15,11,1,11,0.00
2013-7-14,92,78,66,73,69,64,93,75,54,30.27,30.20,10,-2,10,0.00
2013-7-15,94,83,72,74,70,66,91,69,46,30.27,30.19,12,2,12,0.00
2013-7-16,94,84,74,75,71,67,86,67,48,30.25,30.15,13,2,13,0.00
2013-7-17,99,87,76,80,75,72,88,68,51,30.17,30.02,17,2,17,0.00
2013-7-18,96,86,77,78,74,71,87,69,51,30.05,29.86,13,2,13,0.01
2013-7-19,97,84,71,77,74,67,94,72,48,29.86,29.62,26,5,26,0.52
2013-7-20,88,77,71,71,64,59,96,68,42,29.87,29.63,14,4,14,0.25
2013-7-21,77,69,62,62,58,54,85,70,57,30.01,29.87,11,1,11,0.02
2013-7-22,76,69,60,67,61,53,94,78,50,29.98,29.75,4,0,10,0.00
2013-7-23,84,71,62,71,63,55,92,78,60,29.75,29.56,8,3,13,0.11
2013-7-24,75,64,56,57,51,47,83,65,45,30.02,29.69,8,4,16,0.00
2013-7-25,78,66,55,58,54,51,89,66,41,30.11,30.02,8,2,11,0.00
2013-7-26,78,67,56,61,56,50,93,70,41,30.10,29.97,5,1,11,0.00
2013-7-27,73,67,62,68,64,58,96,89,80,29.97,29.74,8,1,22,0.51
2013-7-28,76,68,61,67,57,50,95,71,48,29.93,29.72,10,5,19,0.00
2013-7-29,73,64,58,61,57,53,89,78,62,30.11,29.92,6,2,10,0.02
2013-7-30,78,67,57,63,59,55,92,75,57,30.17,30.11,6,1,10,0.00
2013-7-31,79,66,58,64,60,55,97,81,55,30.13,29.90,5,1,8,0.46
2013-8-1,83,69,61,65,61,56,99,79,48,29.90,29.75,6,2,12,0.98
2013-8-2,80,67,58,66,60,56,93,78,46,29.85,29.76,8,2,13,0.23
2013-8-3,80,69,60,60,57,55,89,68,45,29.93,29.80,7,4,13,0.01
2013-8-4,74,65,58,57,54,49,88,68,46,30.07,29.93,9,4,15,0.00
2013-8-5,78,66,54,57,53,51,90,66,41,30.09,29.98,11,3,11,0.00
2013-8-6,78,69,61,64,60,55,88,72,58,30.01,29.94,5,2,10,0.00
2013-8-7,84,73,66,72,67,63,95,82,65,29.94,29.78,10,4,15,0.06
2013-8-8,85,75,68,70,66,61,91,75,58,29.93,29.85,7,2,11,0.00
2013-8-9,85,74,66,63,59,56,78,62,44,29.91,29.83,6,3,11,0.00
2013-8-10,78,68,59,60,53,49,74,61,42,30.07,29.88,6,3,10,0.00
2013-8-11,79,66,54,61,54,-100,88,68,50,30.11,29.98,10,2,11,0.00
2013-8-12,77,68,57,66,60,54,90,77,63,30.02,29.81,8,2,10,0.00
2013-8-13,71,64,55,64,56,49,96,76,54,29.87,29.73,9,4,16,0.00
2013-8-14,73,62,54,53,50,47,87,67,42,30.07,29.84,10,5,14,0.00
2013-8-15,78,65,53,55,51,48,85,63,42,30.10,30.02,6,2,13,0.00
2013-8-16,81,68,54,61,56,50,89,68,45,30.18,30.08,9,3,13,0.00
2013-8-17,83,70,58,62,57,52,86,66,36,30.26,30.18,6,2,10,0.00
2013-8-18,84,71,58,66,61,56,93,73,46,30.22,30.08,6,2,9,0.00
2013-8-19,86,74,60,64,60,57,91,67,43,30.09,29.98,9,2,12,0.00
2013-8-20,89,77,64,67,63,59,89,64,45,30.08,30.01,8,2,12,0.00
2013-8-21,90,78,68,70,66,63,86,68,50,30.10,29.95,8,3,12,0.00
2013-8-22,85,78,69,71,64,56,81,64,41,29.98,29.88,9,4,18,0.00
2013-8-23,79,69,60,58,57,54,85,67,46,30.18,29.98,6,1,9,0.00
2013-8-24,79,69,57,61,57,54,92,69,46,30.33,30.18,8,2,10,0.00
2013-8-25,83,70,56,68,61,54,96,75,50,30.31,30.05,8,2,11,0.09
2013-8-26,78,72,69,73,69,65,98,91,79,30.07,29.89,6,2,11,1.22
2013-8-27,86,74,66,72,69,64,95,84,62,29.92,29.83,5,1,9,1.66
2013-8-28,86,76,70,73,70,68,95,83,59,29.94,29.82,2,1,9,0.01
2013-8-29,88,78,69,71,69,66,92,75,56,30.03,29.94,6,2,9,0.00
2013-8-30,88,76,68,71,68,65,93,77,55,29.96,29.67,10,3,16,0.03
2013-8-31,79,74,70,70,69,67,91,84,71,29.82,29.67,4,1,7,0.00
2013-9-1,80,72,67,68,66,65,94,83,63,29.83,29.72,4,0,8,0.01
2013-9-2,80,71,62,71,65,55,94,81,57,29.77,29.66,9,3,15,0.00
2013-9-3,74,65,60,58,54,50,81,69,54,29.92,29.76,7,3,11,0.00
2013-9-4,82,67,56,62,56,50,86,70,49,29.99,29.90,7,3,12,0.00
2013-9-5,67,59,51,53,44,38,83,61,36,30.24,29.98,7,3,16,0.00
2013-9-6,74,60,45,58,47,41,87,64,36,30.28,30.05,6,2,10,0.00
2013-9-7,68,64,60,65,58,51,93,83,66,30.05,29.85,8,2,13,0.74
2013-9-8,72,64,56,65,52,46,93,67,41,30.10,29.84,7,2,11,0.01
2013-9-9,71,60,50,58,52,47,90,75,50,30.12,29.92,6,1,8,0.00
2013-9-10,94,78,63,75,69,58,93,75,55,29.94,29.84,7,3,13,0.01
2013-9-11,91,81,72,74,70,67,90,69,55,29.96,29.84,8,3,16,0.74
2013-9-12,76,69,61,68,63,54,93,81,53,29.88,29.71,7,3,15,0.36
2013-9-13,61,54,51,55,45,41,80,73,66,30.06,29.77,9,4,16,0.00
2013-9-14,68,54,43,48,42,36,85,64,35,30.14,30.05,6,2,10,0.00
2013-9-15,68,59,52,55,50,47,83,71,56,30.11,30.02,7,2,14,0.09
2013-9-16,61,54,46,52,45,40,90,74,49,30.39,30.04,6,2,11,0.00
2013-9-17,63,52,41,48,43,37,87,74,54,30.48,30.27,5,1,10,0.00
2013-9-18,72,57,44,54,48,42,93,74,41,30.27,30.08,6,1,11,0.00
2013-9-19,75,61,50,63,56,47,92,85,66,30.10,29.98,7,2,13,0.00
2013-9-20,77,68,59,68,63,57,95,86,74,29.99,29.70,8,3,13,0.24
2013-9-21,70,61,52,67,59,46,94,91,82,29.73,29.59,7,3,10,1.09
2013-9-22,56,51,47,48,43,40,90,74,56,30.05,29.73,8,3,13,0.01
2013-9-23,64,53,46,45,42,40,90,69,45,30.17,30.05,5,1,11,0.00
2013-9-24,70,54,43,51,44,40,92,72,37,30.17,30.01,4,1,7,0.00
2013-9-25,74,58,46,54,48,43,91,71,46,30.02,29.94,5,1,8,0.00
2013-9-26,72,60,48,54,50,45,92,71,47,30.15,29.99,5,1,8,0.00
2013-9-27,69,58,50,55,52,48,92,79,60,30.27,30.15,4,1,9,0.00
2013-9-28,69,59,50,59,54,48,93,85,68,30.28,30.11,3,0,6,0.00
2013-9-29,72,63,54,60,57,51,92,81,64,30.12,29.97,7,2,15,0.02
2013-9-30,68,64,62,63,61,58,94,90,84,29.97,29.91,8,2,11,0.06
2013-10-1,78,64,52,63,58,50,94,81,53,30.01,29.86,9,3,14,0.00
2013-10-2,80,69,58,62,52,41,88,60,27,30.07,29.87,7,3,13,0.00
2013-10-3,74,61,48,57,45,39,85,58,33,30.12,30.00,4,1,7,0.00
2013-10-4,64,61,60,60,57,55,94,88,78,30.07,29.96,2,0,5,0.45
2013-10-5,64,60,56,56,53,51,88,78,66,30.11,30.01,3,0,8,0.09
2013-10-6,66,61,57,64,58,51,95,90,72,30.01,29.64,4,1,8,0.10
2013-10-7,67,59,52,65,52,43,95,80,50,30.03,29.59,12,4,17,0.48
2013-10-8,66,54,46,50,46,42,92,74,49,30.33,30.03,6,1,11,0.00
2013-10-9,67,54,44,53,47,42,93,79,49,30.38,30.27,5,1,8,0.00
2013-10-10,68,55,46,56,49,45,95,81,56,30.27,30.16,3,0,6,0.00
2013-10-11,70,55,43,50,44,39,87,70,40,30.18,30.12,3,0,7,0.00
2013-10-12,69,57,44,57,49,40,90,77,54,30.19,30.12,3,0,6,0.00
2013-10-13,61,59,55,59,56,51,95,89,73,30.27,30.13,5,1,9,0.64
2013-10-14,66,55,47,53,49,44,92,80,57,30.34,30.26,4,1,8,0.00
2013-10-15,64,56,44,58,50,42,93,84,68,30.30,29.89,4,1,7,0.00
2013-10-16,69,63,55,62,57,47,94,83,60,29.89,29.69,11,4,18,0.31
2013-10-17,64,56,52,53,50,47,92,80,59,29.85,29.67,6,2,8,0.44
2013-10-18,62,54,48,50,44,40,90,72,47,29.86,29.68,8,3,17,0.02
2013-10-19,53,47,43,46,43,38,91,85,67,29.84,29.65,4,1,8,0.35
2013-10-20,59,47,38,45,38,34,92,74,42,29.94,29.74,8,2,18,0.00
2013-10-21,60,53,44,50,47,40,93,79,68,29.92,29.74,10,4,17,0.47
2013-10-22,50,45,40,48,34,28,93,68,52,29.82,29.73,10,4,17,0.01
2013-10-23,48,42,38,38,33,26,89,70,48,29.80,29.71,8,2,14,0.00
2013-10-24,49,41,36,37,34,30,85,75,57,30.04,29.77,7,3,14,0.00
2013-10-25,49,42,37,37,34,31,92,75,52,30.18,30.03,8,2,11,0.01
2013-10-26,44,42,40,38,35,29,90,78,56,30.07,29.72,12,7,21,0.77
2013-10-27,49,42,36,37,34,32,87,75,56,30.02,29.79,6,2,9,0.15
2013-10-28,49,43,34,38,29,21,77,59,36,30.42,29.99,9,2,15,0.00
2013-10-29,46,37,28,33,27,23,80,69,54,30.50,30.30,4,1,8,0.00
2013-10-30,53,44,39,42,38,33,94,82,62,30.30,30.07,4,0,8,0.02
2013-10-31,61,52,42,57,50,39,99,91,84,30.07,29.26,11,4,22,0.64
2013-11-1,60,55,49,57,48,42,93,77,66,29.61,29.04,15,8,25,0.15
2013-11-2,49,44,35,44,39,27,90,83,73,30.06,29.58,6,3,11,0.08
2013-11-3,41,33,28,27,23,18,83,66,40,30.54,30.06,5,2,10,0.00
2013-11-4,43,35,26,29,26,22,83,69,54,30.65,30.42,7,2,12,0.00
2013-11-5,54,45,34,42,37,29,85,74,63,30.43,30.28,5,2,9,0.00
2013-11-6,58,52,48,54,45,38,93,76,66,30.28,29.73,9,5,16,0.20
2013-11-7,55,43,38,50,35,30,86,74,57,29.98,29.77,9,4,20,0.02
2013-11-8,44,39,34,32,29,24,82,68,48,30.22,29.96,10,3,14,0.00
2013-11-9,51,44,38,43,35,28,89,71,63,30.21,29.74,9,4,17,0.02
2013-11-10,50,43,38,41,35,29,79,72,60,30.17,29.75,11,5,23,0.02
2013-11-11,44,38,29,37,30,19,87,74,58,30.16,29.90,10,5,17,0.05
2013-11-12,34,28,24,23,17,12,78,64,48,30.43,30.16,10,5,20,0.00
2013-11-13,40,32,23,23,20,18,81,63,44,30.44,30.03,12,5,20,0.00
2013-11-14,52,42,34,34,26,20,64,53,45,30.08,29.95,12,7,18,0.00
2013-11-15,54,46,42,38,31,26,69,55,44,30.08,29.98,10,5,19,0.00
2013-11-16,54,48,39,42,38,33,79,69,63,30.20,29.95,7,2,10,0.00
2013-11-17,58,54,50,54,49,42,92,85,69,29.95,29.22,12,4,20,0.38
2013-11-18,55,44,36,48,34,27,80,68,55,29.92,29.23,17,8,28,0.02
2013-11-19,38,34,28,30,24,21,79,67,55,30.48,29.92,11,5,18,0.00
2013-11-20,38,32,25,30,25,18,79,75,67,30.59,30.42,3,1,7,0.00
2013-11-21,45,40,34,40,33,26,92,74,62,30.42,30.22,7,3,10,0.06
2013-11-22,48,41,29,45,38,23,95,87,73,30.22,30.00,12,3,23,0.29
2013-11-23,32,26,13,27,18,6,87,71,54,30.28,30.04,13,6,26,0.00
2013-11-24,24,17,11,14,9,4,79,70,56,30.45,30.27,9,4,14,0.00
2013-11-25,35,29,20,27,19,12,82,67,52,30.40,30.05,11,7,22,0.00
2013-11-26,36,33,31,33,29,25,93,83,75,30.12,29.84,7,3,11,0.04
2013-11-27,33,29,19,31,24,12,93,81,67,29.97,29.70,12,5,25,0.07
2013-11-28,28,23,18,17,14,11,76,68,54,30.45,29.97,7,2,12,0.00
2013-11-29,32,23,15,20,15,7,80,69,53,30.73,30.45,4,1,6,0.02
2013-11-30,37,32,26,30,23,14,77,70,55,30.71,30.15,8,4,17,0.01
2013-12-1,40,38,36,37,33,29,91,85,74,30.14,29.93,5,1,8,0.13
2013-12-2,37,36,34,35,32,26,92,83,73,29.93,29.86,5,1,10,0.01
2013-12-3,40,34,26,29,26,23,92,73,59,30.01,29.92,4,1,7,0.00
2013-12-4,39,36,34,36,33,29,91,87,79,30.05,29.83,2,1,7,0.06
2013-12-5,60,46,38,51,39,27,93,78,54,30.02,29.67,11,4,15,0.00
2013-12-6,38,33,29,27,22,17,68,63,58,30.27,29.99,5,3,11,0.00
2013-12-7,30,27,22,18,14,10,69,59,47,30.57,30.26,7,4,15,0.00
2013-12-8,31,25,21,22,15,12,75,65,51,30.58,30.18,5,2,12,0.00
2013-12-9,35,31,27,32,26,16,92,79,63,30.18,29.82,13,7,23,0.03
2013-12-10,27,21,18,18,10,7,78,62,52,30.04,29.92,9,6,17,0.00
2013-12-11,25,21,15,15,10,6,75,64,50,30.31,30.04,9,5,20,0.00
2013-12-12,20,16,14,10,7,4,78,68,53,30.33,30.04,9,5,16,0.00
2013-12-13,24,17,10,18,8,-1,84,68,54,30.45,30.01,9,5,15,0.00
2013-12-14,13,9,6,10,3,-4,92,76,59,30.48,29.82,3,2,8,0.00
2013-12-15,24,16,9,20,12,5,92,83,78,29.89,29.72,8,4,15,0.00
2013-12-16,20,12,4,12,5,0,92,74,56,30.20,29.89,7,2,10,0.02
2013-12-17,27,19,8,24,15,3,92,84,73,30.16,29.91,5,1,8,0.02
2013-12-18,33,28,25,25,22,20,89,79,70,30.05,29.92,7,4,11,0.01
2013-12-19,37,33,30,30,26,22,85,76,70,30.03,29.85,7,3,15,0.02
2013-12-20,34,33,31,32,31,29,94,93,86,30.00,29.79,4,0,6,0.35
2013-12-21,33,32,30,32,30,28,94,93,92,29.92,29.73,6,0,8,0.50
2013-12-22,35,31,27,33,29,25,94,92,87,29.95,29.64,5,0,8,0.00
2013-12-23,34,28,21,32,24,18,92,86,76,30.29,29.92,3,0,7,0.00
2013-12-24,21,13,5,18,8,0,89,80,70,30.55,30.25,0,0,0,0.00
2013-12-25,27,14,2,22,9,-3,92,82,78,30.56,30.17,0,0,0,0.00
2013-12-26,32,27,22,26,22,17,90,83,76,30.26,30.06,7,2,12,0.00
2013-12-27,34,28,23,30,23,18,92,80,66,30.26,30.03,6,3,10,0.01
2013-12-28,38,37,32,33,32,30,89,82,79,30.07,29.90,10,3,15,0.18
2013-12-29,42,36,21,33,29,12,90,76,65,29.90,29.60,10,3,15,0.06
2013-12-30,21,15,12,12,4,-5,79,62,34,30.25,29.82,9,3,15,0.00
2013-12-31,21,16,13,16,10,5,88,76,59,30.25,29.99,10,3,18,0.00
2014-1-1,16,11,6,10,2,-9,83,65,50,30.44,30.25,7,4,12,0.01
2014-1-2,6,1,-3,-3,-7,-12,77,69,54,30.40,30.12,9,4,16,0.00